EW8968 Weather Reports


Display with metric or nautical units.
time (UTC)temp
F
wind
direction
speed
MPH
gust
MPH
rain 1hr
in
rain 24hr
in
rain mn
in
humidity
%
barometer
mb
20260508194507 69 142 0.0 0.0 0.00 0.01 0.01 32 1015.4
20260508193004 68 63 0.0 2.0 0.00 0.01 0.01 31 1015.6
20260508191602 67 222 0.0 5.0 0.00 0.01 0.01 33 1015.7
20260508190056 67 169 0.0 0.0 0.00 0.01 0.01 38 1016.0
20260508184607 66 309 0.0 3.0 0.00 0.01 0.01 42 1016.4
20260508183052 66 31 0.0 0.0 0.00 0.01 0.01 35 1016.5
20260508181559 66 75 0.0 0.0 0.00 0.01 0.01 31 1016.7
20260508180045 65 309 0.0 0.0 0.00 0.01 0.01 45 1016.7
20260508174541 63 242 0.0 0.0 0.00 0.01 0.01 48 1017.0
20260508173041 62 274 0.0 0.0 0.00 0.01 0.01 51 1017.4
20260508171543 64 70 0.0 0.0 0.00 0.01 0.01 50 1017.8
20260508170034 63 330 0.0 1.0 0.00 0.01 0.01 54 1018.0
20260508164531 61 321 0.0 0.0 0.00 0.01 0.01 53 1018.3
20260508163032 61 299 0.0 0.0 0.00 0.01 0.01 57 1018.7
20260508161528 59 213 0.0 0.0 0.00 0.02 0.01 61 1018.8
20260508160048 59 276 0.0 0.0 0.00 0.02 0.01 64 1019.1
20260508154522 58 257 0.0 0.0 0.00 0.02 0.01 66 1019.2
20260508153018 57 225 0.0 0.0 0.00 0.02 0.01 68 1019.4
20260508151514 56 290 0.0 0.0 0.00 0.03 0.01 77 1019.5
20260508150014 55 301 0.0 0.0 0.00 0.03 0.01 83 1019.7
20260508144505 53 290 0.0 0.0 0.00 0.03 0.01 88 1019.8
20260508143110 52 297 0.0 0.0 0.00 0.03 0.01 93 1019.7
20260508141606 51 295 0.0 0.0 0.00 0.04 0.01 95 1019.8
20260508140054 50 293 0.0 0.0 0.00 0.04 0.01 97 1019.9
20260508134549 49 279 0.0 0.0 0.00 0.04 0.01 97 1019.9
20260508133055 47 263 0.0 0.0 0.00 0.04 0.01 97 1019.8
20260508131542 46 279 0.0 0.0 0.00 0.05 0.01 97 1019.7
20260508130037 45 313 0.0 0.0 0.00 0.05 0.01 97 1019.7
20260508124536 44 240 0.0 0.0 0.00 0.05 0.01 97 1019.6
20260508123035 43 280 0.0 0.0 0.00 0.05 0.01 97 1019.4
20260508121553 42 287 0.0 0.0 0.00 0.06 0.01 97 1019.5
20260508120035 41 281 0.0 0.0 0.01 0.06 0.01 97 1019.3
20260508114530 40 315 0.0 0.0 0.01 0.06 0.01 97 1019.1
20260508113028 39 139 0.0 0.0 0.01 0.06 0.01 97 1018.9
20260508111525 39 139 0.0 0.0 0.01 0.07 0.01 97 1018.5
20260508110019 37 139 0.0 0.0 0.00 0.06 0.00 97 1018.2
20260508104520 38 139 0.0 0.0 0.00 0.06 0.00 97 1018.1
20260508103016 38 139 0.0 0.0 0.00 0.06 0.00 97 1017.8
20260508101512 38 139 0.0 0.0 0.00 0.08 0.00 97 1017.6
20260508100008 39 139 0.0 0.0 0.00 0.08 0.00 97 1017.5
20260508094507 39 139 0.0 0.0 0.00 0.08 0.00 97 1017.4
20260508093004 40 139 0.0 0.0 0.00 0.08 0.00 97 1017.4
20260508091503 40 139 0.0 0.0 0.00 0.09 0.00 97 1017.5
20260508090030 41 139 0.0 0.0 0.00 0.09 0.00 97 1017.3
20260508084526 42 139 0.0 0.0 0.00 0.09 0.00 97 1017.1
20260508083109 42 139 0.0 0.0 0.00 0.09 0.00 97 1017.1
20260508081522 43 139 0.0 0.0 0.00 0.09 0.00 97 1017.1
20260508080021 43 143 0.0 0.0 0.00 0.09 0.00 97 1016.9
20260508074523 43 143 0.0 0.0 0.00 0.09 0.00 97 1016.9
20260508073055 44 143 0.0 0.0 0.00 0.09 0.00 97 1017.0
20260508071551 44 143 0.0 0.0 0.00 0.14 0.00 97 1016.9
20260508070015 44 143 0.0 0.0 0.00 0.14 0.00 97 1016.9
20260508064535 45 143 0.0 0.0 0.00 0.14 0.00 97 1017.0
20260508063009 45 143 0.0 0.0 0.00 0.14 0.00 97 1017.0
20260508061508 45 143 0.0 0.0 0.00 0.15 0.14 97 1016.9
20260508060008 45 143 0.0 0.0 0.00 0.15 0.14 97 1017.1
20260508054505 46 143 0.0 0.0 0.00 0.15 0.14 97 1017.1
20260508053004 45 143 0.0 0.0 0.00 0.15 0.14 97 1017.1
20260508051600 45 143 0.0 0.0 0.00 0.15 0.14 96 1017.0
20260508050100 46 143 0.0 0.0 0.00 0.15 0.14 97 1017.0
20260508044556 46 143 0.0 0.0 0.00 0.15 0.14 96 1016.9
20260508043054 47 143 0.0 0.0 0.00 0.15 0.14 97 1016.5
20260508041552 46 143 0.0 0.0 0.00 0.15 0.14 97 1016.4
20260508040049 46 143 0.0 0.0 0.00 0.15 0.14 96 1016.2
20260508034553 46 143 0.0 0.0 0.00 0.15 0.14 96 1016.1
20260508033046 47 143 0.0 0.0 0.00 0.15 0.14 96 1016.2
20260508031542 47 143 0.0 0.0 0.00 0.15 0.14 96 1016.2
20260508030046 48 143 0.0 0.0 0.00 0.15 0.14 96 1016.0
20260508024551 48 143 0.0 0.0 0.00 0.15 0.14 96 1015.7
20260508023037 48 143 0.0 0.0 0.00 0.15 0.14 95 1015.5
20260508021534 49 143 0.0 0.0 0.00 0.19 0.14 95 1015.4
20260508020029 49 143 0.0 0.0 0.00 0.19 0.14 94 1015.3
20260508014532 49 143 0.0 0.0 0.00 0.19 0.14 94 1014.8
20260508013025 50 143 0.0 0.0 0.00 0.19 0.14 93 1014.6
20260508011523 51 143 0.0 0.0 0.00 0.27 0.14 92 1014.5
20260508010025 52 178 0.0 0.0 0.00 0.27 0.14 92 1014.2
20260508004516 52 178 0.0 0.0 0.00 0.27 0.14 90 1014.0
20260508003015 53 178 0.0 0.0 0.00 0.27 0.14 88 1013.7
20260508001513 54 92 0.0 0.0 0.00 0.28 0.14 87 1013.7
20260508000012 55 152 0.0 0.0 0.00 0.28 0.14 85 1013.8
20260507234518 56 152 0.0 0.0 0.00 0.28 0.14 84 1013.8
20260507233012 56 84 0.0 0.0 0.00 0.28 0.14 84 1013.7
20260507231508 56 72 0.0 0.0 0.00 0.28 0.14 83 1013.9
20260507230008 58 139 0.0 0.0 0.00 0.28 0.14 80 1013.8
20260507224514 57 98 0.0 0.0 0.00 0.28 0.14 81 1013.8
20260507223008 57 108 0.0 0.0 0.00 0.28 0.14 81 1013.9
20260507221505 57 100 0.0 0.0 0.00 0.28 0.14 80 1013.5
20260507220004 57 148 0.0 0.0 0.00 0.28 0.14 78 1013.4
20260507214503 57 162 0.0 0.0 0.00 0.28 0.14 78 1013.3
20260507213004 57 191 0.0 0.0 0.00 0.28 0.14 78 1013.2
20260507211502 57 143 0.0 0.0 0.00 0.28 0.14 77 1013.1
20260507210100 57 107 0.0 0.0 0.00 0.28 0.14 77 1013.1
20260507204612 57 193 0.0 0.0 0.00 0.28 0.14 79 1013.0
20260507203058 56 203 0.0 0.0 0.00 0.28 0.14 82 1012.9
20260507201555 55 259 0.0 0.0 0.00 0.28 0.14 83 1013.2
20260507200055 55 292 0.0 0.0 0.00 0.28 0.14 83 1013.2